This demonstration page uses our WeatherBlox Daily Observations layout. Learn more.

Left ArrowRight Arrow

39.92423, -83.80882

Hourly Observations for May 20, 2022

Temp ( °F °C ) Dew Point ( °F °C ) Humidity (%) Winds ( mph kmh ) Pressure ( in mb ) Visibility ( mi km ) Precip ( " mm )
12:56 am 00:56 Clear 66 18.9 65 18.3 96 96 S 12 19 29.66 1004 10 16 0.00 0.00
1:56 am 01:56 Mostly Clear 66 18.9 66 18.9 100 100 SSE 10 17 29.64 1004 10 16 0.00 0.00
2:56 am 02:56 Clear 66 18.9 65 18.3 96 96 S 13 20 29.63 1004 10 16 0.00 0.00
3:56 am 03:56 Mostly Cloudy with Light Rain 67 19.4 67 19.4 100 100 SW 15 24 29.64 1004 10 16 0.00 0.00
4:56 am 04:56 Cloudy with Heavy Rain 66 19 N/A N/A WSW 9 15 29.64 1004 4 6 0.00 0.00
5:11 am 05:11 Cloudy with Heavy Rain N/A N/A N/A WSW 8 13 N/A 2 3 0.00 0.00
5:16 am 05:16 Cloudy with Heavy Rain N/A N/A N/A SW 12 19 N/A 3 5 0.00 0.00
5:27 am 05:27 Cloudy with Thunderstorms N/A N/A N/A S 9 15 N/A 6 10 0.00 0.00
5:35 am 05:35 Cloudy with Thunderstorms N/A N/A N/A S 9 15 N/A 7 11 0.00 0.00
5:39 am 05:39 Cloudy with Rain N/A N/A N/A S 9 15 N/A 7 11 0.00 0.00
5:56 am 05:56 Cloudy with Rain N/A N/A N/A SSW 13 20 N/A 7 11 0.00 0.00
6:07 am 06:07 Cloudy with Nearby Thunderstorms N/A N/A N/A SSW 10 17 N/A 8 13 0.00 0.00
6:15 am 06:15 Cloudy with Thunderstorms N/A N/A N/A SW 12 19 N/A 9 14 0.00 0.00
6:25 am 06:25 Cloudy with Thunderstorms N/A N/A N/A SW 16 26 N/A 10 16 0.00 0.00
6:36 am 06:36 Cloudy with Rain N/A N/A N/A SW 15 24 N/A 10 16 0.00 0.00
6:46 am 06:46 Cloudy with Thunderstorms N/A N/A N/A SW 14 22 N/A 10 16 0.00 0.00
6:56 am 06:56 Cloudy with Rain N/A N/A N/A SW 14 22 N/A 9 14 0.00 0.00
7:04 am 07:04 Cloudy with Nearby Thunderstorms N/A N/A N/A SSW 10 17 N/A 10 16 0.00 0.00
7:40 am 07:40 Cloudy with Nearby Thunderstorms N/A N/A N/A SSW 9 15 N/A 10 16 0.00 0.00
7:48 am 07:48 Cloudy N/A N/A N/A SSW 12 19 N/A 10 16 0.00 0.00
7:56 am 07:56 Cloudy N/A N/A N/A SSW 10 17 N/A 10 16 0.00 0.00
8:56 am 08:56 Mostly Sunny 68 20 N/A N/A SSW 12 19 29.68 1005 10 16 0.00 0.00
9:56 am 09:56 Sunny 73 22.8 72 22.2 96 96 SSW 15 24 29.69 1006 10 16 0.00 0.00
10:56 am 10:56 Mostly Sunny 76 24.4 72 22.2 88 88 SW 17 28 29.70 1006 10 16 0.00 0.00
11:56 am 11:56 Sunny 77 25 73 22.8 88 88 SW 13 20 29.71 1006 10 16 0.00 0.00
12:56 pm 12:56 Partly Cloudy 79 26.1 72 22.2 79 79 SW 16 26 29.72 1007 10 16 0.00 0.00
1:56 pm 13:56 Sunny 81 27.2 66 18.9 61 61 SW 16 26 29.72 1006 10 16 0.00 0.00
2:56 pm 14:56 Sunny 82 27.8 68 20 63 63 SSW 13 20 29.72 1006 10 16 0.00 0.00
3:56 pm 15:56 Sunny 85 29.4 66 18.9 53 53 SSW 17 28 29.70 1006 10 16 0.00 0.00
4:56 pm 16:56 Sunny 85 29.4 65 18.3 51 51 SSW 17 28 29.70 1006 10 16 0.00 0.00
5:56 pm 17:56 Sunny 85 29.4 64 17.8 50 50 SW 18 30 29.67 1005 10 16 0.00 0.00
6:56 pm 18:56 Sunny 84 28.9 66 18.9 55 55 SSW 14 22 29.67 1005 10 16 0.00 0.00
7:56 pm 19:56 Sunny 82 27.8 67 19.4 60 60 SSW 14 22 29.69 1006 10 16 0.00 0.00
8:56 pm 20:56 Clear 79 26.1 66 18.9 65 65 SSW 10 17 29.75 1007 10 16 0.00 0.00
9:56 pm 21:56 Clear 78 25.6 67 19.4 69 69 SSW 14 22 29.76 1008 10 16 0.00 0.00
10:56 pm 22:56 Clear 78 25.6 66 18.9 67 67 SW 17 28 29.80 1009 10 16 0.00 0.00
11:56 pm 23:56 Clear 77 25 65 18.3 66 66 SW 13 20 29.83 1010 10 16 0.00 0.00

Powered by AerisWeather